Theta_e
285 285 284 283 283 282 281 281 280 280 279 278 278 277 277 276 276 275 274 274 274 274 274 274 274 275 274 273 274 274 273 273 269 271 273 274 273 273 274 275 276 275 276
285 284 283 282 282 281 280 279 280 279 279 278 278 277 276 276 275 275 274 274 274 274 274 274 273 275 273 273 272 272 272 272 271 269 272 272 272 273 274 273 275 276 275
284 283 282 281 281 280 279 279 279 278 277 277 277 276 275 275 275 275 275 274 273 273 273 273 273 273 272 272 272 271 272 273 272 271 270 273 273 274 273 274 274 274 276
283 283 282 281 280 280 279 279 278 277 277 277 276 276 275 275 275 275 274 273 273 273 274 273 273 272 272 272 272 272 273 272 272 271 271 272 272 274 273 273 272 274 274
283 282 282 281 281 280 279 278 277 277 276 276 276 275 275 274 275 274 274 274 273 272 273 274 273 273 274 275 273 272 272 271 271 271 271 271 272 272 271 273 272 273 274
283 282 282 281 280 279 278 277 277 276 276 276 275 275 273 274 279 279 276 274 273 272 272 272 272 272 272 275 276 277 277 273 271 271 272 270 271 271 272 272 272 271 268
282 282 282 281 280 279 278 277 277 276 276 275 274 274 273 273 280 280 279 274 273 272 272 272 272 273 272 272 274 277 277 277 278 275 270 271 271 273 272 270 270 270 270
283 282 282 281 280 279 277 277 276 275 275 274 274 273 273 273 279 279 278 273 272 272 271 271 271 271 272 272 273 274 275 274 274 274 273 274 273 273 273 272 271 270 270
282 282 282 281 280 278 277 276 276 275 274 274 274 273 272 272 279 279 277 272 272 271 272 271 271 271 274 277 275 270 271 271 275 276 276 276 276 276 274 271 266 266 265
283 283 282 281 280 278 277 276 276 275 275 274 273 272 272 271 277 278 277 272 267 270 271 272 275 273 276 278 275 266 262 269 271 268 268 270 271 270 273 271 269 265 265
284 283 282 281 280 279 278 276 276 274 273 272 272 270 269 268 268 277 278 272 269 267 269 270 272 276 277 278 279 269 268 273 266 265 265 266 267 268 269 270 270 269 266
283 282 281 281 280 279 277 275 274 273 272 270 268 266 266 267 270 274 277 278 275 267 268 271 272 276 277 278 276 275 275 272 260 259 262 263 265 266 268 269 269 269 270
281 280 280 280 279 278 276 273 272 272 271 268 267 266 266 267 267 275 275 278 278 274 271 272 275 277 278 274 273 274 268 261 259 258 262 264 266 267 268 268 269 269 269
279 277 277 276 274 274 274 273 272 270 269 267 266 266 265 265 266 267 268 269 274 275 274 271 272 275 275 272 266 268 265 263 262 262 263 265 266 265 265 266 265 266 266
275 273 273 274 272 271 271 271 272 269 271 267 267 266 263 263 266 269 268 263 261 266 266 259 261 264 262 263 261 262 262 262 261 262 262 262 263 264 264 265 265 265 264
270 270 271 271 269 269 267 263 273 271 274 275 273 268 262 270 273 275 275 275 276 276 272 263 263 264 263 262 259 259 261 261 261 261 261 261 262 262 262 263 264 264 263
271 268 267 267 267 266 266 266 265 267 275 276 276 276 275 270 274 275 276 278 279 278 272 262 263 263 261 261 260 259 260 262 260 260 260 260 261 261 261 261 263 263 262
264 266 267 267 266 265 266 265 263 265 266 263 274 276 278 278 277 278 278 277 272 266 261 262 261 261 260 259 260 259 259 259 256 257 258 259 258 259 259 259 261 261 261
264 264 264 263 262 263 262 261 261 259 259 258 260 266 267 271 273 273 274 266 262 259 259 259 257 258 259 259 259 257 256 256 255 254 253 256 257 258 258 259 261 261 261
259 262 262 262 260 260 260 260 259 259 259 259 260 264 264 262 257 259 260 257 257 258 259 257 258 259 258 257 256 254 253 252 253 253 253 255 257 258 259 259 259 260 260
258 259 260 258 259 259 259 259 260 259 260 260 262 263 266 260 259 258 256 257 257 260 256 252 251 252 251 251 251 253 253 254 255 255 253 255 253 257 257 259 259 260 260
259 258 258 257 257 258 257 259 260 261 261 260 259 258 268 255 252 251 250 250 250 249 249 250 250 250 253 255 256 256 256 255 255 255 254 254 253 253 255 257 258 259 260
257 256 255 255 256 258 258 258 260 261 259 258 256 252 249 249 247 246 246 248 248 249 250 248 250 251 251 255 257 257 256 255 256 254 251 251 252 252 252 255 257 258 259
256 256 257 257 258 258 259 259 258 255 254 252 249 247 247 246 246 247 248 247 246 248 248 249 251 253 254 253 254 255 255 254 253 253 251 250 252 252 251 254 256 258 260
255 256 256 257 258 258 257 256 252 251 252 254 251 249 248 247 246 247 247 247 248 247 249 249 250 250 251 252 254 254 253 256 254 253 248 248 250 250 251 253 255 258 259
257 258 257 256 255 254 254 254 255 256 255 255 253 250 250 248 248 247 248 248 249 249 249 249 249 250 251 252 253 254 256 258 256 254 251 250 250 251 253 254 256 257 258
Wind_Speed
14 13 13 12 12 12 11 11 10 10 10 10 9 8 8 7 6 7 7 6 6 5 4 5 4 2 1 1 1 1 1 2 7 8 7 9 11 12 12 11 12 13 11
12 12 12 12 12 12 12 11 11 12 9 10 9 9 8 7 7 7 7 5 6 5 4 3 3 1 1 0 1 2 3 3 4 14 11 9 11 12 13 14 11 10 12
13 14 13 14 14 14 13 12 11 11 10 9 9 10 9 8 7 6 7 6 5 5 3 2 1 1 1 1 1 2 2 4 3 8 12 10 10 10 13 12 12 12 10
14 14 15 15 15 13 12 12 11 10 11 9 8 8 7 7 8 8 7 5 5 4 3 2 1 1 1 2 3 3 4 4 6 7 9 11 11 11 10 12 13 11 12
15 15 15 13 12 12 12 10 9 9 9 8 8 6 6 6 6 7 7 6 5 4 3 2 2 1 4 4 2 3 4 4 5 7 9 10 10 12 13 12 14 14 13
15 14 12 12 12 12 12 11 10 9 8 8 8 8 6 4 13 13 9 6 5 4 3 2 1 4 5 7 9 10 9 6 5 7 8 12 15 13 12 12 14 14 18
13 12 12 13 13 12 11 11 11 11 9 8 7 7 6 5 14 13 12 5 5 4 3 1 3 3 5 4 11 13 12 13 14 11 11 10 15 12 16 16 15 14 14
13 14 13 13 13 12 12 12 10 9 10 8 8 7 7 6 14 13 12 5 4 4 3 3 5 6 6 8 10 8 5 4 5 7 8 10 11 14 12 13 15 15 12
15 16 16 15 15 14 13 12 9 8 7 7 6 7 7 5 14 13 10 5 5 4 4 5 6 6 11 14 8 3 2 5 10 13 13 20 21 22 17 10 9 11 12
18 18 16 16 15 15 14 13 10 9 8 6 7 7 7 6 12 12 10 5 4 3 4 6 11 9 16 14 5 3 3 7 5 5 7 10 12 12 17 9 9 10 11
13 14 16 17 18 17 15 10 10 9 7 7 7 5 6 6 7 14 15 6 5 4 4 4 5 15 14 14 12 3 4 9 5 5 7 7 7 8 7 8 10 10 10
16 16 17 17 13 12 15 11 10 9 8 8 6 4 3 4 9 14 14 15 13 6 6 6 7 16 15 15 8 13 17 9 3 3 5 7 7 7 8 9 12 12 11
14 15 14 13 13 12 14 12 9 9 9 8 7 6 6 5 6 16 15 17 17 9 6 9 15 17 15 8 9 14 3 2 2 2 5 7 7 8 11 10 11 13 14
13 12 11 12 10 9 8 8 9 9 8 7 7 8 6 5 6 5 4 5 10 10 10 5 8 12 11 6 2 5 2 3 3 4 6 7 8 7 8 8 9 10 11
9 9 9 8 11 9 7 8 9 7 11 10 9 7 7 7 7 11 9 4 3 7 5 1 1 2 2 2 3 4 3 3 3 4 5 7 7 8 8 8 8 9 10
8 7 7 7 7 6 7 2 11 9 15 14 11 10 3 7 9 13 15 16 18 20 10 4 4 5 5 4 4 4 3 4 4 4 5 6 7 8 8 8 8 8 10
8 7 6 6 7 7 7 8 8 6 14 15 14 13 12 9 14 12 15 18 18 16 7 3 4 5 5 4 4 4 4 4 2 4 5 6 6 7 8 8 8 8 9
6 7 7 6 6 6 7 6 4 7 7 1 10 12 14 14 15 15 11 11 4 2 2 3 4 4 3 4 4 4 4 4 3 3 5 6 6 6 7 7 8 8 9
6 5 5 5 4 5 5 5 4 4 4 3 1 1 3 1 4 7 9 2 1 1 1 2 3 3 4 4 4 4 4 4 4 3 3 5 5 5 7 7 8 11 11
3 7 6 5 5 5 5 5 4 4 4 4 3 3 3 3 1 1 2 2 2 3 3 3 3 4 4 4 4 4 4 4 4 4 5 5 6 6 7 8 8 8 8
4 4 6 4 4 4 5 5 5 5 5 4 3 4 8 4 4 4 3 3 3 4 3 2 3 4 4 4 3 4 4 6 4 5 5 5 4 6 6 7 8 8 8
5 5 4 5 5 5 5 5 5 5 5 4 2 2 8 3 2 2 3 3 3 3 3 3 4 4 5 5 5 5 6 6 6 5 6 6 4 5 6 8 8 8 8
4 5 4 3 4 5 4 3 4 4 4 3 3 3 1 1 2 3 4 4 4 4 4 3 4 3 4 5 5 6 7 7 7 5 5 5 5 5 4 7 8 8 8
5 4 5 4 4 4 4 4 3 3 2 3 3 3 3 3 4 4 5 4 3 4 4 4 5 7 6 5 5 6 6 6 5 6 7 6 7 6 5 7 8 10 8
5 5 4 3 3 3 3 3 3 3 2 2 2 2 3 3 3 4 4 4 4 4 6 5 5 7 9 10 10 9 8 12 9 7 5 6 8 9 8 7 9 9 9
4 4 4 4 4 3 3 3 3 3 2 2 2 3 3 4 4 4 4 4 4 5 6 5 6 9 10 9 10 11 12 13 11 11 8 6 7 8 7 9 10 7 10
Wind_Direction
158 157 153 151 149 146 146 146 147 145 149 142 134 131 131 132 133 117 107 110 104 101 89 86 75 79 31 17 40 6 302 272 283 307 321 321 312 311 312 306 302 305 307
156 148 151 148 149 149 153 155 156 153 150 147 143 144 145 145 141 128 115 111 109 107 98 84 81 43 76 90 62 290 269 269 286 302 314 313 312 310 304 304 304 301 299
155 156 156 158 159 162 162 160 158 154 150 146 149 156 153 149 134 120 119 116 115 118 122 139 139 141 149 128 274 274 272 306 282 292 302 308 303 305 303 301 304 298 290
165 163 164 168 167 165 162 163 157 154 151 155 164 154 149 146 139 135 131 133 135 136 163 175 180 114 2 321 306 294 315 299 285 286 295 302 303 308 298 308 310 307 303
169 172 175 166 163 160 158 161 154 154 156 156 147 147 149 157 147 137 137 139 151 157 160 202 147 301 311 300 310 265 257 253 277 290 296 299 308 320 317 316 305 306 302
176 176 167 163 160 164 162 160 158 154 150 152 161 154 158 172 166 156 144 157 158 157 183 201 284 270 264 300 301 299 296 296 309 294 309 311 312 314 313 317 319 319 313
170 169 170 169 167 167 160 158 164 166 157 165 163 160 175 172 172 171 162 160 158 176 188 198 271 264 269 262 277 284 290 292 301 314 306 304 306 318 319 315 313 307 305
170 171 172 171 171 166 163 170 166 165 170 170 170 176 173 186 187 176 179 158 166 190 191 226 241 260 261 259 258 249 239 255 273 283 286 301 309 311 315 314 311 307 301
178 178 180 175 169 168 173 173 170 163 171 176 176 183 179 188 190 184 181 156 191 194 219 235 244 256 267 279 278 251 255 275 290 304 313 311 315 321 321 319 311 312 308
188 186 173 171 171 175 177 174 176 178 178 169 180 186 182 182 196 196 191 165 171 206 232 242 255 248 262 278 282 151 301 300 307 317 308 314 317 310 319 311 306 304 307
173 169 173 179 181 181 178 175 170 172 163 178 183 173 184 184 205 211 212 170 187 205 220 236 245 261 270 277 285 156 255 299 337 336 318 306 304 302 304 305 304 299 298
176 178 181 182 181 178 175 170 168 166 170 179 169 190 209 201 208 224 219 218 207 194 217 226 233 259 269 276 298 308 298 332 355 321 300 300 304 307 308 305 299 294 285
166 175 176 175 178 176 172 167 164 175 186 183 185 203 216 206 219 227 223 228 231 227 203 221 250 251 274 310 298 293 333 346 287 285 287 293 298 302 303 300 298 297 291
161 163 163 168 167 169 171 172 172 181 186 186 187 208 210 199 215 204 231 239 249 246 247 267 269 270 258 247 276 281 260 250 242 275 285 293 301 303 301 303 304 308 304
154 154 165 171 176 174 182 179 189 200 196 189 196 185 179 218 223 210 203 213 229 245 240 76 263 241 246 262 260 250 249 251 263 276 288 294 295 298 300 306 303 305 310
151 160 172 166 173 173 171 118 209 191 202 206 192 188 211 221 227 224 224 230 231 236 240 208 202 212 227 236 244 252 242 258 261 273 285 286 292 298 301 305 302 310 312
163 157 154 160 169 170 171 180 191 238 207 216 211 210 208 219 229 221 228 239 251 261 262 176 205 211 227 233 234 227 252 257 235 270 278 281 289 293 301 301 301 313 313
136 151 163 170 173 173 183 185 151 171 185 225 226 226 231 226 218 233 259 284 282 304 182 204 219 223 235 232 238 243 252 263 241 245 270 277 281 284 296 296 300 308 311
155 159 159 149 144 140 131 136 139 140 147 147 110 119 56 356 285 284 288 353 351 290 286 247 223 235 244 245 249 245 242 248 235 240 250 269 275 276 288 286 294 301 305
135 146 141 145 139 138 141 146 144 155 159 169 164 173 133 84 93 218 220 237 246 244 243 228 218 229 237 243 247 237 246 244 252 246 254 261 269 272 285 287 291 296 300
124 112 128 114 138 145 150 158 157 154 159 163 169 180 201 185 209 211 213 226 227 253 256 254 237 238 241 241 232 242 241 255 245 245 245 262 249 277 282 280 286 287 292
144 147 145 152 143 144 150 147 150 151 157 167 162 225 240 77 126 197 233 245 256 244 235 229 242 233 231 240 244 241 245 250 251 245 251 257 258 266 275 283 286 289 291
98 104 96 95 109 118 116 131 147 155 156 157 162 177 151 254 268 246 239 243 245 256 258 242 235 240 230 240 237 242 247 245 246 229 233 242 261 259 256 276 282 290 287
102 107 121 125 127 126 135 136 134 119 136 156 168 181 210 229 236 247 252 255 260 264 256 253 246 248 255 244 233 236 236 241 239 238 222 237 260 260 258 269 272 283 282
102 100 89 78 79 113 117 126 139 159 171 209 181 199 227 237 250 253 256 252 254 253 263 247 240 243 251 252 253 250 243 259 253 231 205 219 242 250 256 261 270 278 285
88 102 114 126 132 143 147 154 173 185 194 218 246 243 246 243 243 251 260 261 264 263 259 253 250 250 255 262 261 260 260 260 252 238 222 215 229 240 240 250 261 270 281